Weather History for Lawrence, MA

Change the Weather History Date:

Friday, August 23, 2013

  Actual Average Record
Temperature  
Mean Temperature 72 °F -  
Max Temperature 81 °F 78 °F 95 °F (1976)
Min Temperature 62 °F 56 °F 46 °F (1957)
Cooling Degree Days 7    
Growing Degree Days 22 (Base 50)    
Moisture  
Dew Point 56 °F    
Average Humidity 57    
Maximum Humidity 84    
Minimum Humidity 35    
Precipitation  
Precipitation 0.00 in - - ()
Sea Level Pressure  
Sea Level Pressure 29.97 in    
Wind  
Wind Speed 7 mph (NNW)    
Max Wind Speed 12 mph    
Max Gust Speed 17 mph    
Visibility 10 miles    
Events      
Averages and records for this station are not official NWS values.
T = Trace of Precipitation, MM = Missing Value Source: NWS Daily Summary

Daily Weather History Graph

Daily Weather History Graph

Search for Another Location

Airport:

Trip Planner

Search our weather history database for the weather conditions in past years. The results will help you decide how hot, cold, wet, or windy it might be!

Date:

Astronomy

Aug. 23, 2013 Rise Set
Actual Time 5:59 AM EDT 7:33 PM EDT
Civil Twilight 5:30 AM EDT 8:03 PM EDT
Nautical Twilight 4:54 AM EDT 8:38 PM EDT
Astronomical Twilight 4:15 AM EDT 9:17 PM EDT
Moon 8:44 PM EDT (8/23) 8:57 AM EDT (8/23)
Length of Visible Light 14h 33m
Length of Day
13h 33m
Waning Gibbous, 91% of the Moon is Illuminated
Aug 23
Waning Gibbous
Aug 28
Last Quarter
Sep 5
New
Sep 12
First Quarter
Sep 19
Full

Hourly Weather History & Observations

Time (EDT) Temp. Heat Index Dew Point Humidity Pressure Visibility Wind Dir Wind Speed Gust Speed Precip Events Conditions
12:54 AM 73.0 °F - 68.0 °F 84% 29.83 in 10.0 mi WSW 5.8 mph - N/A   Mostly Cloudy
1:54 AM 73.0 °F - 66.9 °F 81% 29.84 in 10.0 mi West 6.9 mph - N/A   Mostly Cloudy
2:54 AM 73.0 °F - 64.0 °F 73% 29.85 in 10.0 mi WNW 5.8 mph - N/A   Mostly Cloudy
3:54 AM 72.0 °F - 62.1 °F 71% 29.85 in 10.0 mi NW 9.2 mph - N/A   Clear
4:54 AM 70.0 °F - 61.0 °F 73% 29.86 in 10.0 mi NW 5.8 mph - N/A   Clear
5:54 AM 70.0 °F - 61.0 °F 73% 29.88 in 10.0 mi NW 9.2 mph - N/A   Clear
7:54 AM 70.0 °F - 59.0 °F 68% 29.93 in 10.0 mi NNW 6.9 mph - N/A   Clear
8:54 AM 71.1 °F - 59.0 °F 66% 29.95 in 10.0 mi NNW 8.1 mph - N/A   Clear
9:54 AM 73.0 °F - 57.9 °F 59% 29.96 in 10.0 mi NNW 11.5 mph 16.1 mph N/A   Clear
10:54 AM 73.9 °F - 57.0 °F 55% 29.98 in 10.0 mi North 9.2 mph 17.3 mph N/A   Partly Cloudy
11:54 AM 77.0 °F - 57.9 °F 52% 29.97 in 10.0 mi NNW 8.1 mph - N/A   Mostly Cloudy
12:54 PM 78.1 °F - 55.0 °F 45% 29.97 in 10.0 mi North 6.9 mph - N/A   Mostly Cloudy
1:54 PM 80.1 °F 80.0 °F 54.0 °F 40% 29.97 in 10.0 mi Variable 6.9 mph - N/A   Scattered Clouds
2:54 PM 80.1 °F - 50.0 °F 35% 29.98 in 10.0 mi North 8.1 mph - N/A   Mostly Cloudy
3:54 PM 80.1 °F - 52.0 °F 38% 29.99 in 10.0 mi North 11.5 mph - N/A   Mostly Cloudy
4:54 PM 77.0 °F - 55.0 °F 47% 30.00 in 10.0 mi NE 5.8 mph - N/A   Partly Cloudy
5:54 PM 77.0 °F - 55.0 °F 47% 30.01 in 10.0 mi East 4.6 mph - N/A   Partly Cloudy
6:54 PM 75.0 °F - 57.0 °F 53% 30.03 in 10.0 mi East 4.6 mph - N/A   Partly Cloudy
7:54 PM 71.1 °F - 54.0 °F 55% 30.05 in 10.0 mi North 4.6 mph - N/A   Clear
8:54 PM 69.1 °F - 46.9 °F 45% 30.08 in 10.0 mi North 5.8 mph - N/A   Clear
9:54 PM 68.0 °F - 46.0 °F 45% 30.11 in 10.0 mi North 8.1 mph - N/A   Clear
10:54 PM 64.9 °F - 46.0 °F 50% 30.13 in 10.0 mi North 4.6 mph - N/A   Clear
11:54 PM 62.1 °F - 46.9 °F 58% 30.15 in 10.0 mi Calm Calm - N/A   Clear